[[{"header":{"parameterUnit":"m.s-1","parameterCategory":1,"la1":30.2991,"la2":30.254,"lo1":-89.0895,"lo2":-89.0444,"dy":0.0017,"dx":0.0017,"nx":28,"ny":28,"refTime":"2024-07-21T21:00:00:Z","depth":0,"parameterNumber":2,"parameterNumberName":"U-component_of_WINDS"},"data":[0,0,0,0,0,0,0,0,0,0,0,0,0,0,0,0,0,0,0,0,0,0,0,0,0,0,0,0,0,0,0,0,0,0,0,0,0,0,0,0,0,0,0,0,0,0,0,0,0,0,0,0,0,0,0,0,0,0,0.2702,0.2702,0,0.2717,0.2717,0.2718,0.2727,0.2727,0.2727,0.2727,0.2744,0.2745,0.2745,0,0,0,0,0,0,0,0,0,0,0,0,0,0.2682,0.2682,0.2702,0.2702,0.2702,0.2717,0.2717,0.2718,0.2727,0.2727,0.2727,0.2727,0.2744,0.2745,0.2745,0,0,0,0,0,0,0,0,0,0,0,0,0,0.2693,0.2683,0.2702,0.2709,0.271,0.2717,0.2717,0.2718,0.2727,0.2727,0.2727,0.2727,0.2744,0.2745,0.2745,0.2748,0,0,0.2747,0.2747,0,0,0,0,0,0,0,0,0.2693,0.2694,0.2708,0.2708,0.2709,0.272,0.2717,0.2728,0.2727,0.2721,0.2727,0.2727,0.2736,0.2738,0.274,0.2748,0.2749,0.2747,0.2748,0.2748,0.2748,0,0,0,0,0,0,0,0.2692,0.2694,0.2708,0.2708,0.2709,0.2712,0.2713,0.2719,0.2728,0.2721,0.2722,0.2723,0.2737,0.274,0.2741,0.2749,0.2747,0.2748,0.2748,0.2748,0.276,0.276,0,0,0,0,0,0,0.269,0.2693,0.2708,0.2708,0.2701,0.2712,0.2714,0.2717,0.2728,0.273,0.2723,0.2724,0.2739,0.274,0.2742,0.2745,0.2748,0.2748,0.2749,0.276,0.276,0.276,0,0,0,0,0,0,0.2689,0.2691,0.2707,0.2701,0.2703,0.2712,0.2715,0.2717,0.272,0.273,0.2731,0.2725,0.2739,0.2741,0.2746,0.2746,0.2749,0.2749,0.276,0.276,0.276,0.2751,0,0,0,0,0,0,0.2689,0.2691,0.2692,0.2701,0.2703,0.2711,0.2715,0.2717,0.2721,0.2721,0.2731,0.2733,0.2739,0.2745,0.2746,0.2746,0.275,0.276,0.276,0.276,0.2752,0.2751,0.275,0,0,0,0,0,0.2688,0.2689,0.2692,0.2693,0.2704,0.271,0.2712,0.2719,0.2721,0.2722,0.2728,0.2733,0.2745,0.2745,0.2747,0.2747,0.276,0.276,0.276,0.2752,0.2751,0.2751,0,0,0,0,0,0,0.268,0.269,0.2693,0.2697,0.2703,0.2712,0.2713,0.2718,0.2723,0.2724,0.2732,0.2734,0.2739,0.2744,0.2744,0.275,0.2753,0.2754,0.2747,0.2746,0.2745,0.2744,0.275,0,0,0,0,0,0.2678,0.2682,0.2691,0.2694,0.2696,0.2704,0.2707,0.2712,0.2718,0.2721,0.2728,0.2734,0.274,0.2743,0.2749,0.2753,0.2755,0.2754,0.2753,0.2752,0.2753,0.2755,0.2754,0.276,0.276,0.276,0,0,0.2676,0.2682,0.2684,0.2692,0.2697,0.2701,0.2706,0.271,0.2714,0.2722,0.2727,0.2732,0.274,0.2744,0.2747,0.2749,0.2752,0.2752,0.2752,0.2752,0.2755,0.2754,0.2754,0.2759,0.2759,0.2759,0,0,0.2672,0.2677,0.268,0.2685,0.2692,0.2697,0.2698,0.2707,0.271,0.2715,0.2722,0.2726,0.2735,0.274,0.2744,0.2743,0.2748,0.2745,0.2741,0.2743,0.2743,0.2743,0.2742,0.2742,0.2745,0.2745,0.2745,0,0.2668,0.2674,0.2681,0.2684,0.2688,0.2695,0.2698,0.2702,0.2711,0.2714,0.2716,0.2727,0.2733,0.2739,0.2739,0.2742,0.2743,0.2744,0.2742,0.2742,0.2742,0.2742,0.2741,0.2744,0.2744,0.2744,0.2745,0,0.2668,0.2672,0.2673,0.2681,0.2685,0.2688,0.2696,0.2699,0.2703,0.2708,0.2714,0.2721,0.2728,0.273,0.2735,0.2736,0.2737,0.2741,0.2744,0.2741,0.2741,0.2741,0.2744,0.2744,0.2744,0.2744,0,0,0.266,0.2671,0.2672,0.2675,0.2684,0.2688,0.2691,0.2698,0.27,0.2706,0.271,0.2717,0.272,0.2725,0.273,0.2732,0.273,0.2735,0.2736,0.2734,0.2733,0.273,0.273,0.2734,0.2734,0.2734,0.2732,0,0.2658,0.2664,0.267,0.2675,0.2679,0.2686,0.2689,0.2695,0.27,0.2704,0.271,0.2715,0.2719,0.2722,0.2724,0.273,0.273,0.273,0.2737,0.2737,0.2735,0.273,0.2727,0.2725,0.2732,0.2732,0.2732,0,0.2656,0.2661,0.2666,0.2674,0.2676,0.2679,0.2685,0.2689,0.2696,0.27,0.2705,0.271,0.2715,0.2717,0.2724,0.2724,0.2727,0.2731,0.2731,0.2731,0.2734,0.273,0.2725,0.2725,0.2732,0.2732,0.2732,0,0.265,0.2658,0.2662,0.2665,0.2674,0.2676,0.268,0.2687,0.2691,0.2697,0.2699,0.2705,0.2709,0.2714,0.2721,0.2723,0.2727,0.273,0.273,0.273,0.2731,0.273,0.2725,0.2733,0.2733,0.2733,0.2733,0,0.2647,0.2649,0.2659,0.2661,0.2664,0.2671,0.2674,0.2679,0.2685,0.2689,0.2696,0.2699,0.2708,0.2713,0.2719,0.2723,0.2725,0.2728,0.2729,0.2727,0.2727,0.2729,0.2729,0.2733,0.2733,0.2733,0.2733,0,0.264,0.2646,0.2651,0.2659,0.2662,0.2664,0.2671,0.2674,0.2679,0.2684,0.2685,0.2694,0.27,0.2707,0.2715,0.2719,0.2723,0.2725,0.272,0.2721,0.272,0.272,0.2717,0.2716,0.2724,0.2724,0.2724,0,0.2637,0.2639,0.2648,0.2651,0.2654,0.2659,0.2662,0.267,0.2673,0.2681,0.2683,0.2689,0.2694,0.2703,0.271,0.2717,0.2719,0.2717,0.272,0.2718,0.2719,0.2718,0.2719,0.2717,0.2716,0.2716,0.2716,0,0.2632,0.2635,0.264,0.2645,0.2649,0.2654,0.2659,0.2661,0.267,0.2673,0.2679,0.2683,0.2691,0.2697,0.2704,0.2709,0.2714,0.2715,0.2716,0.2713,0.271,0.2712,0.2718,0.2715,0.2716,0.2716,0.2716,0.2716,0.2627,0.2629,0.2635,0.264,0.2645,0.265,0.2653,0.2658,0.2663,0.267,0.2674,0.2679,0.2686,0.2697,0.2701,0.2706,0.2708,0.2708,0.2708,0.2708,0.2707,0.271,0.2707,0.2707,0.2707,0.2707,0.2707,0,0.2622,0.2626,0.2631,0.2638,0.2642,0.2646,0.2652,0.2655,0.2659,0.2665,0.267,0.2676,0.2682,0.269,0.2696,0.2698,0.2701,0.27,0.27,0.2701,0.2705,0.2704,0.2698,0.2698,0.2698,0.2698,0.2698,0.2698,0.262,0.2623,0.2627,0.2633,0.2638,0.2643,0.2646,0.265,0.2655,0.2662,0.2666,0.2671,0.2678,0.2685,0.269,0.2693,0.2695,0.2693,0.2696,0.27,0.27,0.2701,0.27,0.2693,0.2693,0.2691,0.2691,0.2691]},{"header":{"parameterUnit":"m.s-1","parameterCategory":1,"la1":30.2991,"la2":30.254,"lo1":-89.0895,"lo2":-89.0444,"dy":0.0017,"dx":0.0017,"nx":28,"ny":28,"refTime":"2024-07-21T21:00:00:Z","depth":0,"parameterNumber":3,"parameterNumberName":"V-component_of_WINDS"},"data":[0,0,0,0,0,0,0,0,0,0,0,0,0,0,0,0,0,0,0,0,0,0,0,0,0,0,0,0,0,0,0,0,0,0,0,0,0,0,0,0,0,0,0,0,0,0,0,0,0,0,0,0,0,0,0,0,0,0,1.5639,1.5638,0,1.5566,1.5565,1.5564,1.5556,1.5557,1.5557,1.5558,1.5478,1.5475,1.5472,0,0,0,0,0,0,0,0,0,0,0,0,0,1.5767,1.5764,1.5639,1.5638,1.5637,1.5566,1.5565,1.5564,1.5556,1.5557,1.5558,1.5558,1.5479,1.5476,1.5472,0,0,0,0,0,0,0,0,0,0,0,0,0,1.5704,1.5764,1.5639,1.5625,1.5623,1.5566,1.5565,1.5564,1.5556,1.5557,1.5558,1.5559,1.548,1.5476,1.5472,1.5423,0,0,1.5459,1.5457,0,0,0,0,0,0,0,0,1.5708,1.5699,1.5628,1.5626,1.5623,1.5571,1.5581,1.5517,1.5555,1.5581,1.5558,1.5559,1.5508,1.5501,1.5485,1.542,1.5416,1.5458,1.5456,1.5454,1.5453,0,0,0,0,0,0,0,1.5712,1.5702,1.561,1.5627,1.5624,1.562,1.5613,1.5569,1.5539,1.5579,1.5578,1.557,1.5507,1.5489,1.5483,1.5415,1.5459,1.5455,1.5452,1.545,1.5305,1.5304,0,0,0,0,0,0,1.572,1.5706,1.5612,1.5608,1.5669,1.5617,1.5608,1.5587,1.5539,1.5533,1.5569,1.557,1.5496,1.5488,1.548,1.542,1.5454,1.545,1.5448,1.5306,1.5305,1.5303,0,0,0,0,0,0,1.5723,1.5712,1.5615,1.5657,1.5644,1.5614,1.5589,1.5585,1.5567,1.5532,1.5526,1.5557,1.5496,1.5486,1.5438,1.5417,1.5448,1.5444,1.5308,1.5306,1.5304,1.5299,0,0,0,0,0,0,1.5726,1.5713,1.5695,1.5657,1.5642,1.5576,1.5588,1.5583,1.5561,1.5561,1.5519,1.5513,1.5496,1.5444,1.5433,1.5411,1.5441,1.531,1.5307,1.5305,1.53,1.5297,1.5293,0,0,0,0,0,1.5731,1.5695,1.5694,1.5683,1.562,1.5574,1.5566,1.5549,1.5559,1.554,1.5517,1.5514,1.5421,1.5439,1.5427,1.5404,1.5311,1.5308,1.5305,1.5302,1.5297,1.5294,0,0,0,0,0,0,1.573,1.569,1.5688,1.564,1.5611,1.5573,1.5549,1.5545,1.5511,1.5513,1.5492,1.5482,1.5434,1.5414,1.5435,1.5354,1.5367,1.5361,1.5369,1.5364,1.5361,1.5366,1.5437,0,0,0,0,0,1.5725,1.5693,1.5659,1.5619,1.5605,1.558,1.5559,1.5549,1.5517,1.5504,1.5478,1.5446,1.541,1.5386,1.535,1.5298,1.5288,1.5276,1.5272,1.527,1.5264,1.5234,1.5228,1.5293,1.5294,1.5294,0,0,1.5713,1.5687,1.5667,1.5619,1.5595,1.5561,1.5569,1.5533,1.5506,1.5498,1.5451,1.5431,1.5394,1.5343,1.5319,1.5324,1.5244,1.5266,1.5264,1.526,1.5231,1.5224,1.5219,1.5291,1.5292,1.5292,0,0,1.5673,1.5651,1.5615,1.5591,1.5556,1.554,1.5531,1.5494,1.5481,1.5433,1.5426,1.5394,1.5332,1.5306,1.5284,1.5235,1.523,1.5224,1.5204,1.5175,1.517,1.5165,1.5147,1.514,1.5219,1.5219,1.5219,0,1.5661,1.5611,1.5596,1.556,1.5538,1.5532,1.5494,1.5471,1.5426,1.541,1.5417,1.5339,1.5313,1.5256,1.5244,1.5227,1.5215,1.5228,1.5173,1.5168,1.5163,1.5145,1.5138,1.5218,1.5218,1.5218,1.5219,0,1.5598,1.5563,1.5539,1.5496,1.5472,1.5435,1.5413,1.539,1.5382,1.5364,1.5315,1.5285,1.5243,1.5229,1.522,1.5169,1.5174,1.5177,1.5189,1.5156,1.5139,1.5132,1.5217,1.5218,1.5218,1.5218,0,0,1.5554,1.5506,1.5497,1.5477,1.5438,1.541,1.5373,1.5333,1.5313,1.5282,1.5248,1.5196,1.5199,1.5175,1.5163,1.5138,1.5099,1.5144,1.5142,1.5135,1.504,1.5037,1.5029,1.5096,1.5095,1.5094,1.5043,0,1.5509,1.5444,1.543,1.5373,1.534,1.5333,1.53,1.5272,1.5254,1.5222,1.5202,1.5165,1.5173,1.5158,1.5132,1.5109,1.5079,1.5113,1.5063,1.5062,1.5072,1.502,1.5017,1.4971,1.5036,1.5035,1.5034,0,1.5447,1.5416,1.5357,1.5322,1.5307,1.5278,1.5241,1.5211,1.5178,1.5167,1.514,1.5131,1.509,1.5106,1.5048,1.5071,1.505,1.5036,1.5034,1.5027,1.5045,1.5011,1.4955,1.4948,1.5023,1.5024,1.5025,0,1.542,1.5363,1.532,1.5304,1.5262,1.5242,1.5223,1.5192,1.5169,1.5136,1.512,1.5082,1.5061,1.5031,1.5011,1.5025,1.4955,1.4969,1.4943,1.4943,1.4927,1.4928,1.4866,1.4916,1.4916,1.4916,1.4917,0,1.5369,1.5333,1.5307,1.528,1.5239,1.5223,1.5181,1.5163,1.5135,1.5103,1.5094,1.5064,1.5041,1.5007,1.4992,1.4946,1.4936,1.4925,1.4921,1.4925,1.4926,1.491,1.4912,1.4915,1.4915,1.4915,1.4916,0,1.5331,1.5313,1.5265,1.5231,1.5221,1.5192,1.5161,1.5134,1.5117,1.5077,1.5066,1.5039,1.4999,1.4977,1.4926,1.4915,1.4864,1.4862,1.4875,1.4873,1.4848,1.485,1.4772,1.476,1.4819,1.4819,1.4818,0,1.53,1.5272,1.5235,1.5214,1.5195,1.5162,1.5139,1.5121,1.5098,1.5058,1.5036,1.4996,1.4963,1.4899,1.4873,1.4834,1.483,1.4805,1.4824,1.4829,1.4828,1.483,1.4826,1.4802,1.4801,1.4801,1.48,0,1.5245,1.5238,1.5206,1.5171,1.5145,1.5116,1.5087,1.507,1.5048,1.5021,1.4981,1.4956,1.4905,1.4864,1.4824,1.4803,1.4797,1.4795,1.4787,1.479,1.4798,1.4792,1.4865,1.4796,1.4797,1.4797,1.4797,1.4797,1.5208,1.5183,1.5153,1.5118,1.5095,1.5069,1.5042,1.5022,1.4989,1.4947,1.4939,1.4896,1.4863,1.4808,1.4786,1.4751,1.4756,1.4744,1.4741,1.4738,1.4736,1.4805,1.4744,1.4744,1.4744,1.4744,1.4744,0,1.5153,1.5134,1.5102,1.5063,1.5034,1.5034,1.5003,1.4978,1.4942,1.4913,1.4881,1.4834,1.4796,1.4767,1.4727,1.4705,1.4701,1.4695,1.4695,1.469,1.4735,1.4746,1.4698,1.4698,1.4698,1.4698,1.4698,1.4698,1.512,1.5077,1.5066,1.5011,1.4992,1.4951,1.4933,1.4908,1.4885,1.4834,1.4802,1.4785,1.4756,1.4713,1.4677,1.467,1.4655,1.4648,1.464,1.4682,1.4687,1.4692,1.4702,1.4646,1.4645,1.4598,1.4598,1.4597]}]]